Aurora, CO

1:22 AM MST on November 22, 2017 (GMT -0700)
Buckley Air Force Base

Weather History for KBKF - December, 2012

Change the Weather History Date:

Thursday, December 27, 2012

  Actual Average Record
Temperature  
Mean Temperature 17 °F -  
Max Temperature 28 °F 42 °F 60 °F (1996)
Min Temperature 6 °F 21 °F 4 °F (2014)
Degree Days  
Heating Degree Days 48    
Moisture  
Dew Point 12 °F    
Average Humidity 82    
Maximum Humidity 100    
Minimum Humidity 64    
Precipitation  
Precipitation 0.00 in - - ()
Snow  
Snow 0.00 in - - ()
Snow Depth 2.00 in    
Sea Level Pressure  
Sea Level Pressure 29.86 in    
Wind  
Wind Speed 7 mph (SSE)    
Max Wind Speed 13 mph    
Max Gust Speed -    
Visibility 9 miles    
Events      
Averages and records for this station are not official NWS values.
T = Trace of Precipitation, MM = Missing Value Source: NWS Daily Summary

Daily Weather History Graph

Daily Weather History Graph

Search for Another Location

Airport or City:

Trip Planner

Search our weather history database for the weather conditions in past years. The results will help you decide how hot, cold, wet, or windy it might be!

Date:

Astronomy

Dec. 27, 2012 Rise Set
Actual Time 7:19 AM MST 4:41 PM MST
Civil Twilight 6:48 AM MST 5:12 PM MST
Nautical Twilight 6:14 AM MST 5:46 PM MST
Astronomical Twilight 5:41 AM MST 6:18 PM MST
Moon 4:27 PM MST (12/27) 6:31 AM MST (12/27)
Length of Visible Light 10h 23m
Length of Day
9h 22m
Full, 100% of the Moon is Illuminated
Dec 27
Full
Dec 28
Full
Jan 4
Last Quarter
Jan 11
New
Jan 18
First Quarter

Hourly Weather History & Observations

Time (MST) Temp. Windchill Dew Point Humidity Pressure Visibility Wind Dir Wind Speed Gust Speed Precip Events Conditions
12:55 AM 6.8 °F -5.9 °F 5.0 °F 92% 29.75 in 7.0 mi SW 8.1 mph - N/A   Mostly Cloudy
1:55 AM 6.8 °F -2.0 °F 3.2 °F 85% 29.76 in 6.0 mi WSW 4.6 mph - N/A   Mostly Cloudy
2:55 AM 6.8 °F -4.8 °F 3.2 °F 85% 29.77 in 6.0 mi SSW 6.9 mph - N/A   Scattered Clouds
3:55 AM 8.6 °F -2.6 °F 5.0 °F 85% 29.77 in 6.0 mi SSW 6.9 mph - N/A   Scattered Clouds
4:55 AM 8.6 °F -3.7 °F 5.0 °F 85% 29.80 in 7.0 mi SSW 8.1 mph - N/A   Partly Cloudy
5:55 AM 10.4 °F -3.3 °F 6.8 °F 85% 29.80 in 7.0 mi South 10.4 mph - N/A   Scattered Clouds
6:55 AM 12.2 °F -0.2 °F 8.6 °F 85% 29.81 in 10.0 mi South 9.2 mph - N/A   Mostly Cloudy
7:55 AM 15.8 °F 3.4 °F 12.2 °F 86% 29.83 in 10.0 mi South 10.4 mph - N/A   Mostly Cloudy
8:55 AM 19.4 °F 10.4 °F 15.8 °F 86% 29.83 in 10.0 mi South 6.9 mph - N/A   Mostly Cloudy
9:55 AM 23.0 °F 17.0 °F 17.6 °F 80% 29.83 in 10.0 mi East 4.6 mph - N/A   Mostly Cloudy
10:55 AM 26.6 °F 17.5 °F 19.4 °F 74% 29.83 in 10.0 mi East 9.2 mph - N/A   Mostly Cloudy
11:55 AM 28.4 °F 18.0 °F 17.6 °F 64% 29.79 in 10.0 mi ENE 12.7 mph - N/A   Mostly Cloudy
12:55 PM 26.6 °F 15.7 °F 17.6 °F 69% 29.79 in 10.0 mi East 12.7 mph - N/A   Mostly Cloudy
1:55 PM 23.0 °F 11.7 °F 17.6 °F 80% 29.83 in 10.0 mi East 11.5 mph - N/A   Mostly Cloudy
2:55 PM 21.2 °F 10.9 °F 14.0 °F 74% 29.86 in 10.0 mi ESE 9.2 mph - N/A   Mostly Cloudy
3:55 PM 19.4 °F 9.5 °F 12.2 °F 74% 29.90 in 10.0 mi East 8.1 mph - N/A   Overcast
4:55 PM 19.4 °F 12.8 °F 14.0 °F 80% 29.93 in 10.0 mi East 4.6 mph - N/A   Mostly Cloudy
5:55 PM 17.6 °F - 12.2 °F 79% 29.96 in 10.0 mi SE 2.3 mph - N/A   Mostly Cloudy
6:55 PM 17.6 °F - 14.0 °F 86% 29.97 in 10.0 mi Calm Calm - N/A   Overcast
7:55 PM 17.6 °F - 14.0 °F 86% 29.96 in 10.0 mi Calm Calm - N/A   Overcast
8:55 PM 17.6 °F - 14.0 °F 86% 29.97 in 10.0 mi SE 2.3 mph - N/A   Overcast
9:55 PM 17.6 °F 8.2 °F 12.2 °F 79% 29.96 in 10.0 mi SSW 6.9 mph - N/A   Mostly Cloudy
10:55 PM 15.8 °F 7.2 °F 12.2 °F 86% 29.96 in 10.0 mi SSW 5.8 mph - N/A   Partly Cloudy
11:55 PM 12.2 °F 1.7 °F 12.2 °F 100% 29.96 in 10.0 mi SSW 6.9 mph - N/A   Partly Cloudy